Hamilton, OH

10:50 AM EST on February 14, 2016 (GMT -0500)
Butler County Regional

Weather History for KHAO - March, 2014

Change the Weather History Date:

Sunday, March 2, 2014

  Actual Average (KCVG) Record (KCVG)
Temperature  
Mean Temperature 26 °F 39 °F  
Max Temperature 35 °F 48 °F 78 °F (1992)
Min Temperature 18 °F 30 °F -5 °F (1980)
Degree Days  
Heating Degree Days 38 26  
Month to date heating degree days 53  
Since 1 July heating degree days 3880  
Cooling Degree Days 0 0  
Month to date cooling degree days 0  
Year to date cooling degree days 0  
Moisture  
Dew Point 22 °F    
Average Humidity 87    
Maximum Humidity 93    
Minimum Humidity 65    
Precipitation  
Precipitation 0.34 in 0.10 in 2.00 in (1945)
Month to date precipitation 0.21  
Year to date precipitation 6.02  
Snow  
Snow 0.00 in 0.20 in 2.50 in (1960)
Month to date snowfall 0.3  
Since 1 July snowfall 18.9  
Snow Depth -    
Sea Level Pressure  
Sea Level Pressure 30.20 in    
Wind  
Wind Speed 8 mph (North)    
Max Wind Speed 13 mph    
Max Gust Speed -    
Visibility 3 miles    
Events Rain , Snow    
T = Trace of Precipitation, MM = Missing Value Source: NWS Daily Summary

Daily Weather History Graph

Daily Weather History Graph

Search for Another Location

Airport or City:

Trip Planner

Search our weather history database for the weather conditions in past years. The results will help you decide how hot, cold, wet, or windy it might be!

Date:

Astronomy

Mar. 02, 2014 Rise Set
Actual Time 7:09 AM EST 6:31 PM EST
Civil Twilight 6:42 AM EST 6:58 PM EST
Nautical Twilight 6:11 AM EST 7:29 PM EST
Astronomical Twilight 5:40 AM EST 8:00 PM EST
Moon 7:40 AM EST (3/2) 8:25 PM EST (3/2)
Length of Visible Light 12h 15m
Length of Day
11h 22m
Waxing Crescent, 3% of the Moon is Illuminated
Mar 2
Waxing Crescent
Mar 8
First Quarter
Mar 16
Full
Mar 23
Last Quarter
Mar 30
New

Hourly Weather History & Observations

Time (EST) Temp. Windchill Dew Point Humidity Pressure Visibility Wind Dir Wind Speed Gust Speed Precip Events Conditions
12:53 AM 35.1 °F 29.3 °F 27.0 °F 72% 30.18 in 6.0 mi North 6.9 mph - N/A   Haze
1:53 AM 33.1 °F 27.7 °F 28.0 °F 82% 30.18 in 5.0 mi North 5.8 mph - N/A   Haze
2:21 AM 32.0 °F 24.2 °F 27.0 °F 82% 30.18 in 5.0 mi North 9.2 mph - N/A   Haze
2:50 AM 32.0 °F 27.5 °F 26.6 °F 80% 30.17 in 5.0 mi North 4.6 mph - N/A   Haze
2:53 AM 32.0 °F 28.7 °F 26.1 °F 79% 30.18 in 5.0 mi North 3.5 mph - N/A   Haze
3:45 AM 30.0 °F 23.2 °F 28.0 °F 92% 30.18 in 2.5 mi North 6.9 mph - 0.00 in Snow Light Snow
3:53 AM 30.0 °F 22.4 °F 28.0 °F 92% 30.20 in 2.0 mi North 8.1 mph - 0.00 in Snow Light Snow
4:36 AM 30.0 °F 23.2 °F 28.0 °F 92% 30.15 in 3.0 mi NNE 6.9 mph - 0.00 in   Overcast
4:53 AM 30.0 °F 22.4 °F 27.0 °F 88% 30.17 in 4.0 mi NNE 8.1 mph - 0.00 in   Overcast
5:27 AM 30.0 °F 24.1 °F 28.0 °F 92% 30.15 in 2.0 mi NNE 5.8 mph - 0.01 in   Overcast
5:53 AM 30.0 °F 22.4 °F 28.0 °F 92% 30.18 in 2.5 mi North 8.1 mph - 0.03 in   Overcast
6:21 AM 30.0 °F 21.1 °F 28.0 °F 92% 30.17 in 3.0 mi NNE 10.4 mph - 0.02 in   Overcast
6:25 AM 30.0 °F 21.7 °F 28.0 °F 92% 30.17 in 3.0 mi North 9.2 mph - 0.02 in Rain Light Freezing Rain
6:30 AM 30.0 °F 22.4 °F 28.0 °F 92% 30.17 in 3.0 mi NNE 8.1 mph - 0.03 in Rain Light Freezing Rain
6:42 AM 30.0 °F 20.5 °F 28.0 °F 92% 30.17 in 4.0 mi North 11.5 mph - 0.04 in Rain Light Freezing Rain
6:49 AM 30.2 °F 21.9 °F 26.6 °F 86% 30.18 in 4.0 mi NNE 9.2 mph - 0.04 in Rain Light Freezing Rain
6:53 AM 30.0 °F 23.2 °F 28.0 °F 92% 30.20 in 4.0 mi North 6.9 mph - 0.04 in Rain Light Freezing Rain
7:09 AM 30.0 °F 21.1 °F 27.0 °F 88% 30.17 in 3.0 mi North 10.4 mph - 0.01 in Rain Light Freezing Rain
7:26 AM 30.0 °F 21.7 °F 27.0 °F 88% 30.16 in 2.5 mi North 9.2 mph - 0.02 in Rain Light Freezing Rain
7:34 AM 28.9 °F 20.4 °F 26.1 °F 89% 30.15 in 2.5 mi NNE 9.2 mph - 0.02 in Rain Light Freezing Rain
7:42 AM 28.9 °F 19.8 °F 26.1 °F 89% 30.17 in 3.0 mi North 10.4 mph - 0.02 in Rain Light Freezing Rain
7:50 AM 28.4 °F 19.1 °F 26.6 °F 93% 30.17 in 4.0 mi North 10.4 mph - 0.02 in   Overcast
7:53 AM 28.9 °F 21.1 °F 26.1 °F 89% 30.18 in 4.0 mi NNE 8.1 mph - 0.02 in   Overcast
8:10 AM 28.9 °F 20.4 °F 26.1 °F 89% 30.17 in 2.5 mi North 9.2 mph - 0.00 in Rain Light Freezing Rain
8:15 AM 28.9 °F 19.8 °F 26.1 °F 89% 30.17 in 1.5 mi NNE 10.4 mph - 0.01 in Rain Light Freezing Rain
8:25 AM 28.9 °F 19.8 °F 26.1 °F 89% 30.17 in 2.0 mi North 10.4 mph - 0.01 in Rain Light Freezing Rain
8:47 AM 28.4 °F 20.4 °F 26.6 °F 93% 30.19 in 3.0 mi North 8.1 mph - 0.01 in   Overcast
8:53 AM 28.0 °F 20.8 °F 26.1 °F 92% 30.21 in 3.0 mi North 6.9 mph - 0.01 in   Overcast
9:17 AM 28.0 °F 18.6 °F 26.1 °F 92% 30.18 in 2.5 mi North 10.4 mph - 0.00 in   Overcast
9:33 AM 28.0 °F 18.6 °F 25.0 °F 88% 30.19 in 3.0 mi North 10.4 mph - 0.00 in   Overcast
9:43 AM 28.0 °F 20.0 °F 26.1 °F 92% 30.19 in 2.5 mi North 8.1 mph - 0.01 in Rain Light Freezing Rain
9:53 AM 28.0 °F 18.1 °F 26.1 °F 92% 30.20 in 2.0 mi NNE 11.5 mph - 0.02 in Rain Light Freezing Rain
10:04 AM 28.0 °F 18.6 °F 25.0 °F 88% 30.18 in 2.0 mi NNE 10.4 mph - 0.01 in Rain Light Freezing Rain
10:29 AM 28.0 °F 20.8 °F 25.0 °F 88% 30.19 in 2.5 mi NNE 6.9 mph - 0.03 in   Overcast
10:36 AM 28.0 °F 20.8 °F 25.0 °F 88% 30.20 in 3.0 mi North 6.9 mph - 0.04 in   Overcast
10:49 AM 26.6 °F 15.7 °F 24.8 °F 93% 30.19 in 1.8 mi North 12.7 mph - 0.05 in Snow Light Snow
10:53 AM 27.0 °F 18.0 °F 24.1 °F 89% 30.22 in 1.2 mi North 9.2 mph - 0.05 in Snow Light Snow
11:06 AM 27.0 °F 17.3 °F 24.1 °F 89% 30.18 in 1.0 mi North 10.4 mph - 0.02 in Snow Light Snow
11:14 AM 26.1 °F 15.6 °F 24.1 °F 92% 30.18 in 0.8 mi North 11.5 mph - 0.02 in Snow Light Snow
11:18 AM 27.0 °F 18.0 °F 24.1 °F 89% 30.18 in 1.0 mi North 9.2 mph - 0.03 in Snow Light Snow
11:31 AM 27.0 °F 18.7 °F 24.1 °F 89% 30.18 in 2.0 mi North 8.1 mph - 0.03 in Snow Light Snow
11:43 AM 26.1 °F 18.4 °F 24.1 °F 92% 30.19 in 1.8 mi North 6.9 mph - 0.03 in Snow Light Snow
11:50 AM 26.6 °F 17.5 °F 24.8 °F 93% 30.18 in 1.5 mi NNE 9.2 mph - 0.03 in Snow Light Snow
11:53 AM 26.1 °F 19.4 °F 24.1 °F 92% 30.21 in 1.8 mi Variable 5.8 mph - 0.03 in Snow Light Snow
11:58 AM 26.1 °F 17.6 °F 24.1 °F 92% 30.20 in 3.0 mi NNW 8.1 mph - 0.00 in Snow Light Snow
12:53 PM 26.1 °F 15.6 °F 21.9 °F 84% 30.21 in 9.0 mi NNE 11.5 mph - 0.00 in   Overcast
1:53 PM 26.1 °F 18.4 °F 21.9 °F 84% 30.21 in 10.0 mi North 6.9 mph - N/A   Overcast
2:03 PM 26.1 °F 17.6 °F 21.9 °F 84% 30.19 in 10.0 mi North 8.1 mph - N/A   Overcast
2:26 PM 26.1 °F 16.8 °F 21.0 °F 81% 30.18 in 10.0 mi North 9.2 mph - N/A   Overcast
2:49 PM 26.6 °F 16.8 °F 19.4 °F 74% 30.19 in 9.0 mi NNW 10.4 mph - N/A   Overcast
2:53 PM 25.0 °F 17.1 °F 19.9 °F 81% 30.22 in 8.0 mi North 6.9 mph - N/A   Overcast
3:15 PM 25.0 °F 14.8 °F 19.9 °F 81% 30.18 in 6.0 mi NNW 10.4 mph - 0.00 in Snow Light Snow
3:31 PM 25.0 °F 16.3 °F 19.9 °F 81% 30.19 in 2.0 mi North 8.1 mph - 0.00 in Snow Light Snow
3:46 PM 25.0 °F 16.3 °F 19.9 °F 81% 30.19 in 2.0 mi North 8.1 mph - 0.00 in Snow Light Snow
3:48 PM 24.8 °F 16.9 °F 19.4 °F 80% 30.19 in 1.5 mi North 6.9 mph - 0.00 in Snow Light Snow
3:53 PM 25.0 °F 17.1 °F 19.9 °F 81% 30.21 in 1.2 mi North 6.9 mph - 0.01 in Snow Light Snow
4:19 PM 24.1 °F 13.7 °F 19.9 °F 84% 30.20 in 2.0 mi NNW 10.4 mph - 0.00 in Snow Light Snow
4:27 PM 24.1 °F 15.2 °F 19.0 °F 81% 30.20 in 4.0 mi North 8.1 mph - 0.00 in Snow Light Snow
4:38 PM 23.0 °F 13.1 °F 19.0 °F 85% 30.20 in 2.5 mi NNW 9.2 mph - 0.01 in Snow Light Snow
4:53 PM 23.0 °F 13.1 °F 19.0 °F 85% 30.22 in 2.5 mi North 9.2 mph - 0.02 in Snow Light Snow
5:10 PM 23.0 °F 11.7 °F 19.0 °F 85% 30.20 in 3.0 mi North 11.5 mph - 0.00 in Snow Light Snow
5:15 PM 23.0 °F 11.7 °F 19.0 °F 85% 30.20 in 1.8 mi North 11.5 mph - 0.00 in Snow Light Snow
5:23 PM 21.9 °F 10.4 °F 19.0 °F 89% 30.20 in 1.2 mi North 11.5 mph - 0.01 in Snow Light Snow
5:33 PM 21.9 °F 10.4 °F 19.0 °F 89% 30.20 in 0.8 mi North 11.5 mph - 0.01 in Snow Light Snow
5:53 PM 21.0 °F 10.6 °F 18.0 °F 88% 30.25 in 1.0 mi North 9.2 mph - 0.01 in Snow Light Snow
6:08 PM 21.0 °F 10.6 °F 18.0 °F 88% 30.22 in 0.8 mi North 9.2 mph - 0.01 in Snow Light Snow
6:24 PM 21.0 °F 9.3 °F 18.0 °F 88% 30.23 in 1.0 mi NNW 11.5 mph - 0.02 in Snow Light Snow
6:48 PM 19.4 °F 10.4 °F 17.6 °F 93% 30.23 in 1.2 mi North 6.9 mph - 0.03 in Snow Light Snow
6:53 PM 19.9 °F 11.1 °F 18.0 °F 92% 30.25 in 1.2 mi North 6.9 mph - 0.03 in Snow Light Snow
7:13 PM 19.9 °F 10.1 °F 17.1 °F 89% 30.22 in 2.0 mi NNE 8.1 mph - 0.01 in Snow Light Snow
7:19 PM 19.9 °F 8.6 °F 17.1 °F 89% 30.22 in 1.5 mi NNE 10.4 mph - 0.01 in Snow Light Snow
7:34 PM 19.9 °F 10.1 °F 17.1 °F 89% 30.22 in 0.8 mi North 8.1 mph - 0.02 in Snow Light Snow
7:40 PM 19.9 °F 10.1 °F 17.1 °F 89% 30.22 in 0.8 mi North 8.1 mph - 0.03 in Snow Light Snow
7:53 PM 19.0 °F 8.2 °F 17.1 °F 92% 30.25 in 0.8 mi North 9.2 mph - 0.04 in Snow Light Snow
8:13 PM 19.0 °F 10.0 °F 16.0 °F 88% 30.23 in 1.2 mi North 6.9 mph - 0.01 in Snow Light Snow
8:31 PM 19.0 °F 9.0 °F 16.0 °F 88% 30.24 in 1.8 mi North 8.1 mph - 0.01 in Snow Light Snow
8:50 PM 19.4 °F 10.4 °F 15.8 °F 86% 30.26 in 2.5 mi NNW 6.9 mph - 0.02 in Snow Light Snow
8:53 PM 19.0 °F 10.0 °F 16.0 °F 88% 30.29 in 2.0 mi NNW 6.9 mph - 0.02 in Snow Light Snow
9:03 PM 19.0 °F 11.1 °F 15.1 °F 85% 30.26 in 1.8 mi NNW 5.8 mph - 0.00 in Snow Light Snow
9:12 PM 18.0 °F 8.7 °F 15.1 °F 88% 30.26 in 2.0 mi North 6.9 mph - 0.00 in Snow Light Snow
9:16 PM 18.0 °F 8.7 °F 15.1 °F 88% 30.25 in 1.5 mi North 6.9 mph - 0.00 in Snow Light Snow
9:33 PM 18.0 °F 7.7 °F 15.1 °F 88% 30.26 in 1.8 mi North 8.1 mph - 0.01 in Snow Light Snow
9:39 PM 18.0 °F 6.9 °F 15.1 °F 88% 30.25 in 2.5 mi North 9.2 mph - 0.01 in Snow Light Snow
9:53 PM 18.0 °F 6.9 °F 14.0 °F 84% 30.29 in 2.5 mi North 9.2 mph - 0.01 in Snow Light Snow
10:14 PM 18.0 °F 7.7 °F 14.0 °F 84% 30.27 in 4.0 mi NNE 8.1 mph - 0.00 in Snow Light Snow
10:53 PM 18.0 °F 9.8 °F 14.0 °F 84% 30.28 in 10.0 mi NNE 5.8 mph - 0.00 in   Overcast
11:53 PM 18.0 °F 5.4 °F 8.1 °F 65% 30.30 in 10.0 mi NNE 11.5 mph - N/A   Overcast